• în România
  • Lista ţărilor
  • Pe 7 zile
  • Temperatura apei
  • Hartă satelitară
  • Meteo pe hartă
  • Widget-uri
  • user-avatar
    Intrare

    Meteo pe oră la Ostrozhki

    Astăzi, 21 Iunie, Joi

    Timp Temperatura Precipitaţii Vânt Presiune Umiditate
    00:00 +12°C° 0 mm 2 m/s 740 mmHg 82%
    01:00 +12°C° 0 mm 2 m/s 740 mmHg 85%
    02:00 +10°C° 0 mm 2 m/s 740 mmHg 93%
    03:00 +10°C° 0 mm 2 m/s 740 mmHg 90%
    04:00 +12°C° 0 mm 2 m/s 740 mmHg 87%
    05:00 +13°C° 0 mm 2 m/s 740 mmHg 84%
    06:00 +14°C° 0 mm 3 m/s 740 mmHg 78%
    07:00 +17°C° 0 mm 3 m/s 740 mmHg 72%
    08:00 +19°C° 0 mm 4 m/s 740 mmHg 65%
    09:00 +20°C° 0 mm 4 m/s 739 mmHg 63%
    10:00 +21°C° 0 mm 4 m/s 739 mmHg 60%
    11:00 +23°C° 0 mm 5 m/s 739 mmHg 57%
    12:00 +23°C° 0,1 mm 5 m/s 739 mmHg 55%
    13:00 +25°C° 0,1 mm 5 m/s 739 mmHg 52%
    14:00 +26°C° 0,1 mm 5 m/s 739 mmHg 50%
    15:00 +26°C° 0 mm 4 m/s 738 mmHg 51%
    16:00 +26°C° 0 mm 4 m/s 738 mmHg 52%
    17:00 +26°C° 0 mm 4 m/s 738 mmHg 53%
    18:00 +24°C° 0 mm 3 m/s 737 mmHg 61%
    19:00 +21°C° 0 mm 3 m/s 737 mmHg 69%
    20:00 +20°C° 0 mm 2 m/s 737 mmHg 78%
    21:00 +19°C° 0 mm 3 m/s 737 mmHg 80%
    22:00 +19°C° 0 mm 3 m/s 737 mmHg 83%
    23:00 +18°C° 0 mm 3 m/s 736 mmHg 86%

    Mâine, 22 Iunie, Vineri

    Timp Temperatura Precipitaţii Vânt Presiune Umiditate
    00:00 +18°C° 0 mm 3 m/s 736 mmHg 86%
    01:00 +18°C° 0 mm 4 m/s 735 mmHg 86%
    02:00 +18°C° 0 mm 4 m/s 735 mmHg 85%
    03:00 +18°C° 0,1 mm 4 m/s 734 mmHg 85%
    04:00 +19°C° 0,1 mm 4 m/s 734 mmHg 86%
    05:00 +19°C° 0,1 mm 5 m/s 733 mmHg 86%
    06:00 +20°C° 0,3 mm 5 m/s 733 mmHg 86%
    07:00 +20°C° 0,3 mm 5 m/s 733 mmHg 86%
    08:00 +21°C° 0,3 mm 5 m/s 733 mmHg 87%
    09:00 +20°C° 0,7 mm 5 m/s 734 mmHg 89%
    10:00 +19°C° 0,7 mm 4 m/s 734 mmHg 92%
    11:00 +19°C° 0,7 mm 4 m/s 734 mmHg 94%
    12:00 +17°C° 0,5 mm 4 m/s 734 mmHg 94%
    13:00 +14°C° 0,5 mm 3 m/s 735 mmHg 94%
    14:00 +14°C° 0,5 mm 2 m/s 735 mmHg 94%
    15:00 +14°C° 0 mm 2 m/s 735 mmHg 93%
    16:00 +14°C° 0 mm 2 m/s 736 mmHg 92%
    17:00 +14°C° 0 mm 2 m/s 736 mmHg 91%
    18:00 +14°C° 0 mm 2 m/s 737 mmHg 90%
    19:00 +14°C° 0 mm 2 m/s 737 mmHg 90%
    20:00 +14°C° 0 mm 2 m/s 737 mmHg 90%
    21:00 +13°C° 0 mm 2 m/s 738 mmHg 91%
    22:00 +13°C° 0 mm 2 m/s 738 mmHg 91%
    23:00 +12°C° 0 mm 2 m/s 738 mmHg 92%

    Poimâine, 23 Iunie, Sâmbătă

    Timp Temperatura Precipitaţii Vânt Presiune Umiditate
    00:00 +12°C° 0 mm 1 m/s 738 mmHg 92%
    01:00 +11°C° 0 mm 1 m/s 739 mmHg 91%
    02:00 +11°C° 0 mm 1 m/s 739 mmHg 91%
    03:00 +11°C° 0 mm 1 m/s 739 mmHg 89%
    04:00 +12°C° 0 mm 1 m/s 739 mmHg 87%
    05:00 +11°C° 0 mm 0 m/s 739 mmHg 85%
    06:00 +13°C° 0,1 mm 1 m/s 739 mmHg 86%
    07:00 +13°C° 0,1 mm 1 m/s 739 mmHg 87%
    08:00 +13°C° 0,1 mm 1 m/s 740 mmHg 88%
    09:00 +13°C° 0,4 mm 1 m/s 739 mmHg 89%
    10:00 +13°C° 0,4 mm 1 m/s 739 mmHg 90%
    11:00 +13°C° 0,4 mm 1 m/s 739 mmHg 92%
    12:00 +13°C° 0,8 mm 1 m/s 739 mmHg 92%
    13:00 +12°C° 0,8 mm 1 m/s 739 mmHg 93%
    14:00 +12°C° 0,8 mm 1 m/s 739 mmHg 94%
    15:00 +12°C° 0,8 mm 1 m/s 738 mmHg 93%
    16:00 +12°C° 0,8 mm 2 m/s 738 mmHg 93%
    17:00 +12°C° 0,8 mm 2 m/s 738 mmHg 92%
    18:00 +10°C° 1 mm 2 m/s 737 mmHg 93%
    19:00 +10°C° 1 mm 2 m/s 737 mmHg 95%
    20:00 +9°C° 1 mm 2 m/s 737 mmHg 96%
    21:00 +9°C° 0,5 mm 2 m/s 736 mmHg 96%
    22:00 +9°C° 0,5 mm 2 m/s 736 mmHg 96%
    23:00 +9°C° 0,5 mm 3 m/s 736 mmHg 96%

    24 Iunie, Duminică

    Timp Temperatura Precipitaţii Vânt Presiune Umiditate
    00:00 +9°C° 0,5 mm 3 m/s 735 mmHg 96%
    01:00 +9°C° 0,5 mm 3 m/s 735 mmHg 97%
    02:00 +9°C° 0,5 mm 3 m/s 734 mmHg 97%
    03:00 +9°C° 0,6 mm 3 m/s 734 mmHg 97%
    04:00 +9°C° 0,6 mm 3 m/s 733 mmHg 97%
    05:00 +9°C° 0,6 mm 3 m/s 733 mmHg 97%
    06:00 +10°C° 0,4 mm 3 m/s 733 mmHg 97%
    07:00 +10°C° 0,4 mm 3 m/s 733 mmHg 97%
    08:00 +10°C° 0,4 mm 2 m/s 733 mmHg 97%
    09:00 +12°C° 0,9 mm 2 m/s 733 mmHg 97%
    10:00 +12°C° 0,9 mm 2 m/s 733 mmHg 97%
    11:00 +12°C° 0,9 mm 2 m/s 734 mmHg 97%
    12:00 +11°C° 0,4 mm 3 m/s 734 mmHg 96%
    13:00 +11°C° 0,4 mm 4 m/s 735 mmHg 95%
    14:00 +11°C° 0,4 mm 4 m/s 735 mmHg 93%
    15:00 +10°C° 0,4 mm 5 m/s 736 mmHg 93%
    16:00 +10°C° 0,4 mm 5 m/s 736 mmHg 93%
    17:00 +10°C° 0,4 mm 5 m/s 737 mmHg 93%
    18:00 +11°C° 0,1 mm 4 m/s 738 mmHg 93%
    19:00 +11°C° 0,1 mm 3 m/s 739 mmHg 94%
    20:00 +10°C° 0,1 mm 3 m/s 739 mmHg 94%
    21:00 +10°C° 0 mm 2 m/s 740 mmHg 95%
    22:00 +9°C° 0 mm 2 m/s 740 mmHg 97%
    23:00 +9°C° 0 mm 2 m/s 741 mmHg 98%

    25 Iunie, Luni

    Timp Temperatura Precipitaţii Vânt Presiune Umiditate
    00:00 +8°C° 0 mm 2 m/s 741 mmHg 98%
    01:00 +8°C° 0 mm 2 m/s 741 mmHg 98%
    02:00 +8°C° 0 mm 1 m/s 742 mmHg 97%
    03:00 +9°C° 0 mm 1 m/s 742 mmHg 97%
    04:00 +9°C° 0 mm 1 m/s 742 mmHg 96%
    05:00 +10°C° 0 mm 1 m/s 743 mmHg 95%
    06:00 +12°C° 0 mm 2 m/s 743 mmHg 89%
    07:00 +14°C° 0 mm 2 m/s 743 mmHg 82%
    08:00 +16°C° 0 mm 2 m/s 743 mmHg 76%
    09:00 +17°C° 0,1 mm 2 m/s 743 mmHg 69%
    10:00 +19°C° 0,1 mm 3 m/s 743 mmHg 63%
    11:00 +20°C° 0,1 mm 3 m/s 743 mmHg 56%
    12:00 +20°C° 0,4 mm 3 m/s 743 mmHg 58%
    13:00 +21°C° 0,4 mm 3 m/s 743 mmHg 59%
    14:00 +21°C° 0,4 mm 3 m/s 743 mmHg 60%
    15:00 +20°C° 0,4 mm 3 m/s 744 mmHg 63%
    16:00 +20°C° 0,4 mm 2 m/s 744 mmHg 66%
    17:00 +20°C° 0,4 mm 2 m/s 744 mmHg 69%
    18:00 +18°C° 0,2 mm 2 m/s 744 mmHg 76%
    19:00 +18°C° 0,2 mm 1 m/s 744 mmHg 82%
    20:00 +15°C° 0,2 mm 1 m/s 744 mmHg 89%
    21:00 +14°C° 0,2 mm 1 m/s 744 mmHg 91%
    22:00 +13°C° 0,2 mm 1 m/s 745 mmHg 93%
    23:00 +13°C° 0,2 mm 1 m/s 745 mmHg 96%

    26 Iunie, Marţi

    Timp Temperatura Precipitaţii Vânt Presiune Umiditate
    00:00 +12°C° 0 mm 1 m/s 745 mmHg 96%
    01:00 +12°C° 0 mm 1 m/s 745 mmHg 96%
    02:00 +11°C° 0 mm 1 m/s 745 mmHg 97%
    03:00 +12°C° 0 mm 1 m/s 746 mmHg 97%
    04:00 +12°C° 0 mm 1 m/s 746 mmHg 96%
    05:00 +12°C° 0 mm 1 m/s 746 mmHg 96%
    06:00 +14°C° 0 mm 1 m/s 746 mmHg 91%
    07:00 +16°C° 0 mm 2 m/s 747 mmHg 85%
    08:00 +18°C° 0 mm 2 m/s 747 mmHg 79%
    09:00 +19°C° 0,2 mm 2 m/s 747 mmHg 72%
    10:00 +20°C° 0,2 mm 2 m/s 747 mmHg 64%
    11:00 +23°C° 0,2 mm 2 m/s 747 mmHg 57%
    12:00 +23°C° 0,2 mm 2 m/s 747 mmHg 54%
    13:00 +24°C° 0,2 mm 2 m/s 747 mmHg 51%
    14:00 +24°C° 0,2 mm 2 m/s 747 mmHg 48%
    15:00 +24°C° 0,1 mm 2 m/s 747 mmHg 49%
    16:00 +24°C° 0,1 mm 2 m/s 747 mmHg 50%
    17:00 +24°C° 0,1 mm 1 m/s 747 mmHg 51%
    18:00 +23°C° 0 mm 1 m/s 747 mmHg 60%
    19:00 +21°C° 0 mm 1 m/s 747 mmHg 68%
    20:00 +19°C° 0 mm 1 m/s 747 mmHg 76%
    21:00 +18°C° 0 mm 1 m/s 747 mmHg 80%
    22:00 +16°C° 0 mm 1 m/s 748 mmHg 85%
    23:00 +13°C° 0 mm 0 m/s 748 mmHg 89%
    Arată mai mult